Wind_Speed
15 12 12 11 10 9 8 7 6 4 2 1 1 2 3 5 6 8 9 10 12 13 14 16 17 18 19 19 20 20 21 21 21 21 22 22 23 23 24 24 24 25 25 25
15 13 12 11 10 9 8 7 5 4 2 2 2 3 4 6 7 8 10 11 13 14 15 17 18 19 19 20 20 20 21 21 21 22 22 22 22 23 24 24 24 25 25 26
15 14 13 12 10 9 8 7 6 5 4 4 4 5 6 7 8 10 11 12 14 15 16 17 18 19 20 20 21 21 21 21 22 22 22 22 23 23 24 24 25 25 25 26
16 15 15 12 10 9 9 8 8 7 6 6 7 7 8 9 10 11 13 14 15 16 17 18 19 20 21 21 21 22 22 22 22 22 23 23 23 23 24 24 25 25 25 26
17 16 13 12 12 11 11 10 9 9 9 9 10 10 11 11 12 13 14 15 16 17 18 19 20 21 21 22 22 23 23 23 23 23 23 23 23 24 24 24 25 25 26 26
18 16 15 14 13 13 13 12 11 11 11 12 13 12 12 13 14 14 15 16 17 18 19 20 21 22 23 24 24 25 25 25 25 25 25 25 24 24 24 25 25 25 25 26
18 18 18 15 13 15 15 14 13 14 14 14 15 14 14 15 15 16 16 17 18 19 20 21 22 23 24 25 26 26 26 26 26 26 26 26 26 26 26 25 25 25 25 26
20 21 20 16 16 17 17 16 16 16 16 17 17 16 17 17 17 17 18 19 19 20 21 22 24 25 26 27 27 28 28 28 28 28 28 27 27 27 27 26 26 26 26 26
22 22 21 19 19 20 20 19 19 18 18 19 19 19 19 19 19 19 19 20 21 22 23 24 26 27 28 29 30 30 30 30 30 29 29 29 28 28 27 27 27 26 26 26
24 23 23 22 22 22 22 22 21 21 21 21 21 21 20 20 20 20 21 22 23 25 26 27 29 30 31 32 33 33 32 32 31 31 30 30 29 29 29 29 28 27 27 26
26 26 25 24 24 24 24 23 23 23 23 23 23 23 22 22 22 22 23 24 26 28 29 31 32 33 34 35 35 35 34 33 33 32 32 31 31 31 30 30 30 29 28 28
27 28 28 26 26 26 25 25 25 25 25 25 25 24 24 24 25 25 26 27 29 30 32 34 35 36 37 37 36 36 34 33 33 33 32 32 31 31 31 31 31 31 31 30
31 31 30 28 28 28 28 27 27 27 27 27 27 27 27 27 27 28 29 30 32 33 35 37 38 38 39 38 37 36 35 33 33 32 32 32 32 31 30 30 31 31 32 32
35 33 32 31 31 31 30 30 29 29 29 29 29 30 30 30 31 31 32 33 34 36 37 38 39 39 39 38 37 36 35 33 32 31 31 31 31 31 31 31 30 30 31 32
36 35 36 35 34 33 33 32 32 32 32 32 33 33 33 33 34 34 35 36 37 38 39 40 40 40 39 38 37 35 33 32 31 31 31 31 31 31 32 32 32 32 32 32
39 39 39 38 37 37 36 36 36 36 35 36 36 37 37 37 37 38 38 39 40 41 42 42 42 41 39 37 35 34 33 32 32 32 32 32 32 32 33 33 33 33 34 34
43 42 41 41 41 41 40 40 40 39 39 39 40 40 40 40 40 41 41 42 43 43 43 44 43 40 38 36 35 34 34 34 33 33 33 34 34 35 35 35 35 36 36 37
45 44 44 45 45 44 44 44 43 43 43 43 44 44 44 43 43 44 44 45 45 44 44 43 41 39 37 36 36 35 35 35 35 36 36 36 36 37 37 38 38 39 39 39
48 47 48 48 48 48 48 48 48 47 47 47 47 47 47 47 47 47 47 47 46 45 44 42 40 39 38 38 37 37 37 37 38 38 38 39 39 39 40 40 41 41 42 42
51 51 51 51 51 51 51 51 52 51 51 51 51 50 50 50 50 49 49 48 47 46 44 42 41 40 40 39 38 38 39 39 40 40 41 41 42 43 43 44 44 44 45 45
54 54 55 55 55 55 55 55 55 55 55 55 54 54 53 53 52 51 50 49 47 46 45 43 42 41 41 40 40 40 41 41 42 43 43 44 45 46 46 47 47 48 49 49
55 55 56 57 57 58 58 58 58 58 58 58 57 56 56 55 54 53 51 49 47 46 45 44 43 42 41 41 41 42 43 44 45 45 46 47 48 49 49 50 51 52 53 54
54 55 56 56 57 58 58 59 59 59 59 59 58 57 57 55 54 52 50 48 47 45 44 43 42 41 41 41 42 43 45 46 47 48 49 50 51 52 53 54 55 56 57 58
51 52 53 54 55 56 56 57 57 58 58 58 57 55 54 52 51 49 47 46 44 43 42 41 41 41 42 43 44 45 47 48 49 50 51 52 53 55 56 58 59 60 62 62
47 48 49 50 51 51 52 52 52 52 52 52 51 50 49 48 46 45 43 42 41 41 40 40 41 42 43 44 45 47 48 49 51 52 53 55 56 58 60 61 63 64 65 66
43 44 44 44 45 45 45 45 45 45 45 45 44 44 43 42 41 40 40 40 40 40 41 41 42 43 44 45 47 48 49 51 52 54 56 58 59 61 63 64 66 67 68 69
41 41 41 41 41 41 41 40 40 40 40 40 40 39 39 39 39 39 39 40 40 41 42 42 43 44 45 46 48 49 51 52 54 56 58 60 62 63 65 66 67 68 69 69
Wind_Direction
204 204 200 200 198 196 198 202 213 207 201 208 336 352 352 350 349 348 348 348 349 349 348 347 346 346 345 345 346 347 348 349 350 351 352 353 354 355 356 356 356 356 356 355
208 206 204 201 198 198 202 207 214 222 231 254 298 319 330 335 337 339 340 340 340 341 341 341 341 341 341 341 341 341 342 344 345 346 348 348 349 351 352 353 354 354 354 354
210 210 208 206 205 208 213 218 226 239 252 268 288 304 316 323 327 329 331 332 333 334 335 336 337 337 338 338 339 339 339 340 341 342 344 345 346 347 349 350 351 351 352 353
214 214 216 210 212 218 224 230 238 249 261 273 285 295 305 312 316 319 322 324 326 328 330 331 332 333 334 335 336 336 336 336 337 339 340 342 343 344 346 347 348 349 350 352
219 222 220 217 220 228 233 239 247 256 265 274 281 289 298 303 308 312 316 319 322 324 326 327 328 329 330 331 331 332 333 334 335 336 337 338 339 341 342 344 346 347 348 350
223 228 230 225 224 236 242 246 252 260 267 274 280 287 292 297 303 308 312 315 318 320 322 324 325 326 328 328 329 329 329 330 331 332 333 334 335 336 338 339 341 344 345 347
230 233 237 234 234 243 249 252 256 264 270 276 282 288 292 297 301 305 309 311 314 316 318 320 321 322 323 324 324 325 325 326 326 327 328 329 330 332 333 335 336 338 341 343
235 239 242 242 245 251 256 259 262 266 271 276 281 286 291 296 299 302 305 307 310 312 314 316 317 318 319 320 320 321 321 322 322 322 323 323 324 325 327 329 331 333 335 337
240 244 248 250 252 256 260 262 264 268 271 275 279 284 289 293 295 298 300 303 306 309 310 312 313 314 315 315 315 316 316 316 316 317 317 318 319 319 321 322 324 326 328 330
246 249 252 254 256 258 261 264 266 269 271 275 279 283 286 289 292 294 297 300 303 306 307 309 310 311 311 311 311 311 312 312 312 312 312 313 313 313 314 316 318 320 322 324
249 254 255 256 258 260 262 265 268 270 272 275 278 281 284 286 289 292 295 298 301 303 305 307 308 309 309 309 308 308 308 308 308 308 309 310 310 311 311 312 313 315 316 318
251 254 256 257 260 262 263 265 268 270 272 275 277 280 282 285 287 291 293 296 299 302 303 305 306 308 309 309 308 307 306 306 306 306 306 307 307 308 309 309 309 310 311 313
254 255 258 260 262 263 264 266 268 270 272 274 276 279 281 284 287 290 293 295 298 301 303 304 305 307 308 308 307 306 306 305 305 304 304 305 305 306 306 306 306 306 306 307
255 257 259 261 262 263 265 267 268 270 271 273 276 279 281 284 287 289 292 294 297 300 302 304 305 306 306 306 306 305 305 305 304 303 303 304 304 305 305 305 304 303 303 303
255 257 258 260 261 263 264 266 267 269 271 273 276 279 281 283 286 288 291 294 297 299 301 302 303 304 304 304 304 303 303 303 303 303 303 303 303 303 304 304 304 303 302 301
253 254 257 259 261 262 264 265 266 268 270 273 275 278 280 282 285 288 290 293 296 298 300 300 301 302 302 301 301 301 301 301 301 301 301 302 302 303 303 303 303 303 303 302
252 253 255 258 259 260 262 264 266 268 270 272 274 277 279 282 284 287 290 293 295 297 298 299 299 298 298 298 298 299 299 300 300 300 300 300 301 301 302 302 302 302 301 301
252 252 253 255 258 260 262 264 266 268 269 271 273 276 278 281 284 287 290 292 294 296 297 297 296 295 295 295 296 296 297 298 298 299 299 299 300 300 301 301 301 301 300 300
250 251 252 253 256 258 260 262 265 267 269 271 273 275 278 281 283 286 289 291 292 294 294 294 293 292 292 293 294 295 296 297 298 298 298 299 299 300 300 300 300 300 300 299
250 251 251 253 255 257 259 261 263 265 268 270 272 275 277 280 283 285 287 289 291 292 292 291 291 291 291 293 293 294 295 297 298 298 299 299 300 300 300 300 300 300 299 299
250 250 251 252 254 256 258 260 262 264 267 269 271 274 276 279 281 284 286 287 288 289 289 289 289 290 291 292 293 294 296 297 298 298 299 300 300 300 300 300 300 300 300 299
249 250 251 252 253 255 257 259 261 264 266 268 271 273 275 278 280 282 284 285 286 286 286 286 288 289 290 291 293 294 296 297 298 299 300 301 301 301 301 301 301 301 301 300
249 249 250 251 253 254 256 258 261 263 265 267 270 272 274 276 278 280 281 282 283 283 284 285 287 288 290 291 293 295 296 298 299 300 301 302 302 302 302 303 303 303 303 302
248 248 249 251 252 254 256 258 260 262 264 266 268 270 272 274 276 278 279 280 280 281 283 285 286 288 290 292 294 296 298 299 300 301 302 302 303 303 304 304 305 305 304 304
248 248 249 250 251 253 255 257 259 261 263 265 266 268 270 272 274 275 276 277 278 280 282 285 287 289 292 293 295 297 298 299 300 301 302 303 304 305 306 306 306 306 306 305
247 247 248 249 250 252 253 255 257 259 260 262 264 266 267 269 271 272 274 276 278 280 283 285 288 290 292 294 295 297 298 299 301 302 303 305 305 306 307 307 307 307 307 306
245 246 247 247 248 249 251 253 255 257 259 261 262 264 265 267 269 271 274 276 278 281 284 286 288 290 292 294 296 297 299 301 302 303 305 306 307 307 308 308 308 308 308 307
Height
5849 5851 5852 5854 5855 5856 5857 5858 5859 5859 5858 5859 5859 5858 5858 5857 5856 5855 5853 5852 5850 5847 5845 5842 5839 5836 5833 5829 5826 5822 5819 5815 5811 5807 5803 5799 5795 5791 5786 5782 5777 5773 5768 5763
5848 5850 5851 5853 5854 5855 5856 5857 5857 5858 5858 5858 5858 5857 5857 5856 5855 5854 5852 5850 5848 5846 5843 5841 5838 5834 5831 5828 5824 5821 5817 5813 5809 5805 5802 5798 5793 5789 5785 5781 5776 5771 5766 5761
5847 5848 5849 5851 5853 5854 5855 5855 5856 5856 5857 5856 5856 5856 5855 5854 5853 5852 5850 5848 5846 5844 5841 5838 5835 5832 5829 5825 5822 5818 5815 5811 5807 5804 5800 5796 5792 5788 5783 5779 5774 5770 5765 5760
5844 5846 5847 5852 5851 5852 5853 5853 5854 5854 5855 5854 5854 5853 5853 5852 5851 5849 5848 5846 5844 5841 5839 5836 5833 5830 5826 5823 5820 5816 5812 5809 5805 5801 5798 5794 5790 5786 5782 5777 5773 5768 5763 5758
5842 5843 5845 5847 5848 5849 5850 5851 5851 5852 5852 5852 5851 5851 5850 5849 5848 5846 5845 5843 5841 5838 5836 5833 5830 5827 5824 5820 5817 5813 5810 5806 5803 5799 5795 5792 5788 5784 5779 5775 5771 5766 5761 5756
5839 5840 5842 5844 5845 5845 5848 5848 5849 5849 5849 5848 5848 5848 5848 5846 5844 5843 5841 5839 5837 5835 5832 5830 5827 5823 5820 5817 5813 5810 5806 5803 5799 5796 5792 5789 5785 5781 5777 5773 5768 5764 5759 5755
5836 5837 5838 5840 5842 5842 5844 5846 5845 5845 5845 5844 5844 5844 5843 5841 5840 5839 5837 5835 5833 5831 5829 5826 5823 5820 5817 5813 5810 5806 5803 5799 5796 5792 5789 5785 5781 5777 5774 5770 5766 5762 5757 5753
5831 5833 5836 5836 5837 5838 5839 5840 5840 5840 5840 5840 5839 5839 5838 5837 5836 5834 5833 5831 5829 5827 5824 5822 5819 5816 5813 5809 5806 5802 5798 5795 5791 5788 5784 5781 5777 5774 5770 5766 5762 5758 5754 5750
5828 5830 5831 5832 5832 5833 5833 5834 5835 5835 5835 5835 5834 5834 5833 5832 5831 5829 5828 5826 5824 5822 5820 5817 5814 5811 5808 5804 5800 5797 5793 5790 5786 5783 5779 5776 5772 5769 5765 5762 5758 5755 5751 5747
5821 5823 5825 5825 5826 5828 5828 5828 5829 5829 5829 5829 5828 5828 5827 5827 5825 5824 5823 5821 5819 5816 5814 5811 5808 5805 5802 5798 5794 5791 5787 5783 5780 5777 5774 5770 5767 5764 5760 5756 5753 5750 5746 5743
5815 5817 5818 5819 5820 5821 5822 5822 5823 5823 5823 5823 5822 5822 5821 5821 5819 5818 5817 5815 5813 5810 5807 5804 5801 5798 5794 5790 5787 5783 5780 5776 5773 5770 5766 5763 5760 5757 5753 5750 5746 5744 5740 5737
5809 5810 5810 5812 5813 5814 5815 5815 5816 5816 5816 5816 5815 5815 5815 5814 5813 5812 5810 5808 5806 5803 5800 5797 5793 5790 5786 5782 5778 5775 5772 5768 5765 5762 5759 5756 5753 5750 5747 5743 5740 5737 5733 5731
5800 5801 5802 5804 5806 5806 5807 5807 5808 5808 5808 5808 5808 5808 5807 5806 5805 5804 5803 5801 5798 5795 5792 5789 5785 5781 5777 5773 5770 5766 5763 5760 5757 5754 5751 5748 5745 5742 5740 5737 5734 5730 5727 5724
5791 5793 5794 5796 5797 5797 5798 5799 5800 5800 5800 5800 5800 5799 5799 5798 5797 5796 5794 5792 5790 5787 5783 5780 5776 5772 5768 5765 5761 5757 5754 5752 5749 5746 5743 5740 5737 5734 5732 5729 5727 5724 5720 5717
5782 5783 5784 5786 5788 5788 5789 5790 5790 5791 5791 5792 5791 5790 5790 5789 5788 5787 5785 5783 5780 5777 5774 5770 5767 5763 5759 5756 5752 5749 5746 5743 5741 5738 5735 5733 5730 5727 5724 5721 5718 5716 5713 5710
5770 5772 5773 5776 5778 5778 5779 5780 5781 5781 5782 5782 5781 5781 5780 5779 5778 5777 5775 5773 5770 5767 5764 5760 5757 5753 5750 5746 5743 5740 5737 5735 5732 5730 5727 5724 5721 5718 5715 5712 5709 5707 5704 5700
5758 5760 5762 5764 5766 5767 5768 5769 5770 5771 5771 5771 5771 5770 5769 5769 5768 5766 5764 5762 5759 5756 5753 5749 5746 5743 5740 5737 5734 5731 5729 5726 5723 5721 5718 5715 5712 5709 5706 5703 5700 5697 5694 5691
5745 5748 5749 5751 5753 5755 5756 5757 5758 5759 5759 5759 5759 5758 5758 5757 5756 5754 5752 5750 5748 5745 5742 5738 5735 5733 5730 5727 5724 5722 5719 5717 5714 5711 5708 5705 5702 5699 5696 5693 5690 5687 5684 5681
5730 5733 5735 5737 5739 5741 5742 5743 5744 5746 5746 5746 5746 5746 5745 5745 5744 5742 5740 5738 5735 5733 5730 5727 5725 5722 5720 5717 5714 5712 5709 5706 5704 5701 5698 5695 5691 5688 5685 5682 5679 5675 5672 5669
5715 5717 5720 5723 5725 5727 5728 5729 5730 5731 5732 5732 5732 5732 5732 5731 5730 5729 5727 5725 5723 5720 5718 5716 5713 5711 5708 5706 5703 5701 5698 5695 5692 5689 5686 5683 5680 5676 5673 5669 5666 5662 5659 5655
5698 5701 5704 5707 5709 5711 5713 5714 5716 5717 5717 5718 5718 5719 5718 5718 5717 5715 5714 5713 5711 5708 5706 5704 5701 5699 5696 5694 5691 5689 5686 5683 5680 5677 5674 5670 5667 5663 5659 5655 5652 5648 5644 5640
5681 5684 5688 5691 5693 5695 5697 5699 5700 5701 5702 5703 5704 5704 5704 5704 5703 5702 5700 5699 5697 5695 5693 5691 5689 5687 5684 5682 5679 5676 5674 5671 5667 5664 5660 5656 5652 5648 5644 5640 5636 5631 5627 5623
5664 5668 5671 5674 5677 5679 5681 5683 5685 5686 5687 5688 5689 5689 5689 5689 5688 5688 5687 5686 5684 5682 5680 5678 5676 5674 5672 5669 5666 5664 5660 5657 5653 5650 5646 5641 5637 5633 5628 5623 5618 5613 5608 5603
5648 5651 5655 5658 5660 5663 5665 5667 5669 5671 5672 5673 5674 5674 5674 5674 5674 5673 5672 5671 5670 5669 5667 5666 5664 5661 5659 5656 5653 5650 5647 5643 5639 5635 5631 5626 5621 5616 5611 5605 5600 5594 5588 5582
5632 5636 5639 5642 5645 5647 5650 5652 5654 5655 5657 5658 5659 5660 5660 5660 5660 5660 5659 5658 5657 5656 5655 5653 5651 5649 5646 5643 5640 5636 5633 5629 5624 5620 5615 5610 5604 5599 5593 5586 5580 5573 5567 5560
5618 5622 5625 5628 5631 5634 5636 5638 5640 5641 5643 5644 5645 5646 5647 5647 5647 5647 5646 5646 5645 5644 5642 5640 5638 5636 5633 5630 5626 5622 5618 5614 5609 5604 5599 5593 5587 5581 5574 5567 5560 5552 5545 5537
5605 5609 5612 5615 5618 5620 5623 5625 5627 5629 5630 5632 5633 5634 5635 5635 5635 5635 5634 5634 5633 5631 5630 5627 5625 5622 5619 5616 5612 5608 5604 5599 5594 5588 5582 5576 5569 5562 5555 5547 5539 5531 5523 5514